DW5310 Weather Reports


time (UTC)temp
C
wind
direction
speed
KPH
gust
KPH
rain 1hr
cm
rain 24hr
cm
rain mn
cm
humidity
%
barometer
mb
20260905171006 15 40 0.0 8.0 0.00 0.86 0.00 96 1016.5
20260905170507 15 59 0.0 12.9 0.00 0.86 0.00 96 1016.5
20260905165006 15 58 4.8 11.3 0.00 0.86 0.00 97 1016.5
20260905164506 15 60 0.0 8.0 0.00 0.86 0.00 98 1016.5
20260905164006 14 68 0.0 8.0 0.00 0.86 0.00 98 1016.5
20260905163506 14 35 0.0 8.0 0.00 0.86 0.00 98 1016.5
20260905163008 14 68 1.6 8.0 0.00 0.86 0.00 98 1016.5
20260905162506 14 78 0.0 3.2 0.00 0.86 0.00 98 1016.5
20260905162006 13 52 0.0 0.0 0.00 0.86 0.00 98 1016.5
20260905161507 13 35 0.0 0.0 0.00 0.86 0.00 98 1016.5
20260905161006 13 39 0.0 0.0 0.00 0.86 0.00 98 1016.5
20260905160506 13 80 0.0 0.0 0.00 0.86 0.00 98 1016.5
20260905160007 13 99 0.0 0.0 0.00 0.86 0.00 98 1016.5
20260905155506 12 80 0.0 0.0 0.00 0.86 0.00 98 1016.5
20260905155006 12 91 0.0 0.0 0.00 0.86 0.00 98 1016.5
20260905154006 12 80 0.0 0.0 0.00 0.86 0.00 98 1016.5
20260905153506 12 86 0.0 0.0 0.00 0.86 0.00 98 1016.5
20260905153006 12 95 0.0 0.0 0.00 0.86 0.00 98 1016.5
20260905152506 12 80 0.0 0.0 0.00 0.86 0.00 98 1016.5
20260905152006 12 113 0.0 0.0 0.00 0.86 0.00 98 1016.5
20260905151505 12 282 0.0 0.0 0.00 0.86 0.00 98 1016.5
20260905151006 11 282 0.0 0.0 0.00 0.86 0.00 98 1016.5
20260905150506 11 282 0.0 0.0 0.00 0.86 0.00 98 1016.5
20260905150006 11 282 0.0 0.0 0.00 0.86 0.00 98 1016.5
20260905145508 11 282 0.0 0.0 0.00 0.86 0.00 98 1016.5
20260905145006 11 282 0.0 0.0 0.00 0.86 0.00 98 1016.5
20260905144506 11 282 0.0 0.0 0.00 0.86 0.00 98 1016.5
20260905144006 11 282 0.0 0.0 0.00 0.86 0.00 98 1016.5
20260905143506 11 282 0.0 0.0 0.00 0.86 0.00 98 1016.5
20260905142505 11 282 0.0 0.0 0.00 0.86 0.00 98 1016.5
20260905142006 11 282 0.0 0.0 0.00 0.86 0.00 98 1016.5
20260905141006 11 282 0.0 0.0 0.00 0.86 0.00 98 1016.5
20260905140506 11 282 0.0 0.0 0.00 0.86 0.00 98 1016.5
20260905140006 11 282 0.0 0.0 0.00 0.86 0.00 98 1016.5
20260905135506 11 282 0.0 0.0 0.00 0.86 0.00 98 1015.5
20260905135006 11 282 0.0 0.0 0.00 0.86 0.00 98 1015.5
20260905134006 11 282 0.0 0.0 0.00 0.86 0.00 98 1015.5
20260905133506 11 282 0.0 0.0 0.00 0.86 0.00 98 1015.5
20260905133007 11 282 0.0 0.0 0.00 0.86 0.00 98 1015.5
20260905132006 11 282 0.0 0.0 0.00 0.86 0.00 98 1015.5
20260905131505 11 282 0.0 0.0 0.00 0.86 0.00 98 1015.5
20260905131006 11 282 0.0 0.0 0.00 0.86 0.00 98 1015.5
20260905130006 11 282 0.0 0.0 0.00 0.86 0.00 98 1015.5
20260905125505 11 282 0.0 0.0 0.00 0.86 0.00 98 1015.5
20260905124505 11 282 0.0 0.0 0.00 0.86 0.00 98 1015.5
20260905123506 11 282 0.0 0.0 0.00 0.86 0.00 98 1015.5
20260905123006 11 282 0.0 0.0 0.00 0.86 0.00 98 1015.5
20260905122507 11 282 0.0 0.0 0.00 0.86 0.00 98 1014.5
20260905122006 11 282 0.0 0.0 0.00 0.86 0.00 98 1014.5
20260905121506 11 282 0.0 0.0 0.00 0.86 0.00 98 1014.5
20260905121006 11 282 0.0 0.0 0.00 0.86 0.00 98 1015.5
20260905120505 11 282 0.0 0.0 0.00 0.86 0.00 98 1015.5
20260905120005 11 282 0.0 0.0 0.00 0.86 0.00 98 1015.5
20260905115006 11 282 0.0 0.0 0.00 0.86 0.00 98 1015.5
20260905114506 11 282 0.0 0.0 0.00 0.86 0.00 98 1015.5
20260905114006 11 282 0.0 0.0 0.00 0.86 0.00 98 1015.5
20260905113505 11 282 0.0 0.0 0.00 0.86 0.00 98 1015.5
20260905113006 11 282 0.0 0.0 0.00 0.86 0.00 98 1015.5
20260905112506 11 282 0.0 0.0 0.00 0.86 0.00 98 1015.5
20260905112005 11 282 0.0 0.0 0.00 0.86 0.00 98 1015.5
20260905110506 11 282 0.0 0.0 0.00 0.86 0.00 98 1014.5
20260905110006 11 282 0.0 0.0 0.00 0.86 0.00 98 1014.5
20260905105506 11 282 0.0 0.0 0.00 0.86 0.00 98 1014.5
20260905105006 11 282 0.0 0.0 0.00 0.86 0.00 98 1014.5
20260905104506 11 282 0.0 0.0 0.00 0.99 0.00 98 1014.5
20260905104006 11 282 0.0 0.0 0.00 0.99 0.00 98 1015.5
20260905103505 11 282 0.0 0.0 0.00 0.99 0.00 98 1015.5
20260905103005 11 282 0.0 0.0 0.00 0.99 0.00 98 1015.5
20260905102006 11 282 0.0 0.0 0.00 0.99 0.00 98 1015.5
20260905101005 11 282 0.0 0.0 0.00 0.99 0.00 98 1015.5
20260905100005 11 282 0.0 0.0 0.00 0.99 0.00 98 1015.5
20260905095505 12 282 0.0 0.0 0.00 0.99 0.00 98 1015.5
20260905094505 12 282 0.0 0.0 0.00 0.99 0.00 98 1015.5
20260905094006 12 282 0.0 0.0 0.00 0.99 0.00 98 1014.5
20260905093505 12 282 0.0 0.0 0.00 0.99 0.00 98 1014.5
20260905093005 12 282 0.0 0.0 0.00 0.99 0.00 98 1014.5
20260905092505 12 282 0.0 0.0 0.00 0.99 0.00 98 1014.5
20260905092005 12 282 0.0 0.0 0.00 0.99 0.00 98 1014.5
20260905090505 12 282 0.0 0.0 0.00 0.99 0.00 98 1015.5
20260905090005 12 305 0.0 0.0 0.00 0.99 0.00 98 1015.5
20260905085505 12 305 0.0 0.0 0.00 0.99 0.00 98 1014.5
20260905084505 12 305 0.0 0.0 0.00 0.99 0.00 98 1014.5
20260905083505 12 305 0.0 0.0 0.00 0.99 0.00 98 1014.5
20260905083007 12 305 0.0 0.0 0.00 0.99 0.00 98 1014.5
20260905082005 12 305 0.0 0.0 0.00 0.99 0.00 98 1014.5
20260905081506 12 305 0.0 0.0 0.00 0.99 0.00 98 1014.5
20260905080505 12 305 0.0 0.0 0.00 0.99 0.00 98 1014.5
20260905080005 12 305 0.0 0.0 0.00 0.99 0.00 98 1014.5
20260905075505 12 305 0.0 0.0 0.00 0.99 0.00 98 1014.5
20260905075005 12 305 0.0 0.0 0.00 0.99 0.00 98 1014.5
20260905074505 12 305 0.0 0.0 0.00 0.99 0.00 98 1014.5
20260905074005 12 305 0.0 0.0 0.00 0.99 0.00 98 1014.5
20260905073505 12 305 0.0 0.0 0.00 0.99 0.00 98 1014.5
20260905073005 12 58 0.0 0.0 0.00 0.99 0.00 98 1014.5
20260905072005 12 58 0.0 0.0 0.00 0.99 0.00 98 1014.5
20260905071506 12 58 0.0 0.0 0.00 0.99 0.00 98 1014.5
20260905071005 12 58 0.0 0.0 0.00 0.99 0.00 98 1014.5
20260905070505 12 58 0.0 0.0 0.00 0.99 0.00 98 1014.5
20260905070005 12 58 0.0 0.0 0.00 0.99 0.00 98 1014.5
20260905065004 12 58 0.0 0.0 0.00 0.99 0.99 98 1014.5
20260905064505 12 58 0.0 0.0 0.00 0.99 0.99 98 1014.5
20260905064005 12 58 0.0 0.0 0.00 0.99 0.99 98 1014.5
20260905063505 12 46 0.0 0.0 0.00 0.99 0.99 98 1014.5
20260905063005 12 282 0.0 0.0 0.00 0.99 0.99 98 1014.5
20260905062505 12 305 0.0 0.0 0.00 0.99 0.99 98 1014.5
20260905062005 12 260 0.0 0.0 0.00 0.99 0.99 98 1014.5
20260905061504 12 260 0.0 0.0 0.00 0.99 0.99 98 1014.5
20260905061005 12 260 0.0 0.0 0.00 0.99 0.99 98 1014.5
20260905060505 12 260 0.0 0.0 0.00 0.99 0.99 98 1014.5
20260905060005 12 260 0.0 0.0 0.00 0.99 0.99 98 1014.5
20260905055505 12 260 0.0 0.0 0.00 0.99 0.99 98 1014.5
20260905055005 12 260 0.0 0.0 0.00 0.99 0.99 98 1014.5
20260905054505 12 260 0.0 0.0 0.00 0.99 0.99 98 1014.5
20260905054004 12 260 0.0 0.0 0.00 0.99 0.99 98 1014.5
20260905053505 12 260 0.0 0.0 0.00 0.99 0.99 98 1014.5
20260905053005 12 260 0.0 0.0 0.00 0.99 0.99 98 1014.5
20260905052505 12 260 0.0 0.0 0.00 0.99 0.99 98 1014.5
20260905052005 12 260 0.0 0.0 0.00 0.99 0.99 98 1014.5
20260905051505 12 260 0.0 0.0 0.00 0.99 0.99 98 1014.5
20260905051004 12 260 0.0 0.0 0.00 0.99 0.99 97 1014.5
20260905050505 12 260 0.0 0.0 0.00 0.99 0.99 97 1014.5
20260905050004 12 260 0.0 0.0 0.00 0.99 0.99 97 1014.5
20260905045505 12 260 0.0 0.0 0.00 0.99 0.99 97 1014.5
20260905044505 12 282 0.0 0.0 0.00 0.99 0.99 97 1014.5
20260905043504 12 282 0.0 0.0 0.00 0.99 0.99 97 1014.5
20260905042505 12 282 0.0 0.0 0.00 0.99 0.99 97 1014.5
20260905042004 12 282 0.0 0.0 0.00 0.99 0.99 97 1014.5
20260905041505 12 282 0.0 0.0 0.00 0.99 0.99 96 1014.5
20260905041005 12 282 0.0 0.0 0.00 0.99 0.99 96 1014.5
20260905040505 12 282 0.0 0.0 0.00 0.99 0.99 96 1014.5
20260905035504 12 305 0.0 0.0 0.00 0.99 0.99 96 1014.5
20260905035005 12 305 0.0 0.0 0.00 0.99 0.99 96 1014.5
20260905034504 12 283 0.0 0.0 0.00 0.99 0.99 96 1014.5
20260905033505 12 305 0.0 0.0 0.00 0.99 0.99 96 1014.5
20260905033005 12 260 0.0 0.0 0.00 0.99 0.99 96 1014.5
20260905032504 12 305 0.0 0.0 0.00 0.99 0.99 96 1014.5
20260905031504 12 305 0.0 0.0 0.00 0.99 0.99 95 1014.5
20260905031004 12 305 0.0 0.0 0.00 0.99 0.99 95 1013.5
20260905030504 12 305 0.0 0.0 0.00 0.99 0.99 95 1013.5
20260905030005 12 305 0.0 0.0 0.00 0.99 0.99 95 1013.5
20260905025005 12 305 0.0 0.0 0.00 0.99 0.99 95 1013.5
20260905023505 13 305 0.0 0.0 0.00 0.99 0.99 94 1013.5
20260905022504 13 305 0.0 0.0 0.00 0.99 0.99 94 1013.5
20260905022006 13 305 0.0 0.0 0.00 0.99 0.99 94 1013.5
20260905021506 13 305 0.0 0.0 0.00 0.99 0.99 94 1013.5
20260905021004 13 305 0.0 0.0 0.00 0.99 0.99 94 1013.5
20260905020504 13 192 0.0 0.0 0.00 0.99 0.99 94 1013.5
20260905020005 13 205 0.0 0.0 0.00 0.99 0.99 94 1013.5
20260905015504 13 58 0.0 0.0 0.00 0.99 0.99 94 1013.5
20260905015004 13 58 0.0 0.0 0.00 0.99 0.99 94 1013.5
20260905014505 13 58 0.0 0.0 0.00 0.99 0.99 94 1013.5
20260905014005 13 70 0.0 0.0 0.00 0.99 0.99 94 1013.5
20260905013504 13 58 0.0 0.0 0.00 0.99 0.99 94 1013.5
20260905013005 13 58 0.0 0.0 0.00 0.99 0.99 94 1013.5
20260905012504 13 170 0.0 0.0 0.00 0.99 0.99 93 1012.5
20260905011504 14 170 0.0 0.0 0.00 0.99 0.99 93 1012.5
20260905011004 14 170 0.0 0.0 0.00 0.99 0.99 93 1012.5
20260905010504 14 170 0.0 0.0 0.00 0.99 0.99 93 1012.5
20260905010005 14 170 0.0 0.0 0.00 0.99 0.99 93 1012.5
20260905005504 14 80 0.0 0.0 0.00 0.99 0.99 93 1012.5
20260905005004 14 101 0.0 0.0 0.00 0.99 0.99 93 1012.5
20260905004504 14 156 0.0 0.0 0.00 0.99 0.99 94 1012.5
20260905004004 14 148 0.0 0.0 0.00 0.99 0.99 94 1012.5
20260905003004 14 170 0.0 0.0 0.00 0.99 0.99 93 1012.5
20260905002504 14 170 0.0 0.0 0.00 0.99 0.99 94 1012.5
20260905002004 15 142 0.0 0.0 0.00 0.99 0.99 94 1012.5
20260905001505 15 140 0.0 0.0 0.00 0.99 0.99 94 1012.5
20260905001005 15 178 0.0 0.0 0.00 0.99 0.99 93 1012.5
20260905000503 14 148 0.0 0.0 0.00 0.99 0.99 93 1012.5
20260905000005 14 305 0.0 0.0 0.00 0.99 0.99 93 1012.5
20260904235504 14 305 0.0 0.0 0.00 0.99 0.99 93 1012.5
20260904235004 14 305 0.0 3.2 0.00 0.99 0.99 94 1012.5
20260904234004 14 125 0.0 0.0 0.00 0.99 0.99 93 1012.5
20260904233503 14 125 0.0 0.0 0.00 0.99 0.99 93 1012.5
20260904233004 14 92 0.0 0.0 0.15 0.99 0.99 93 1012.5
20260904232004 13 80 0.0 0.0 0.15 0.99 0.99 93 1012.5
20260904231504 13 125 0.0 0.0 0.15 1.12 0.99 93 1012.5
20260904231004 13 102 0.0 0.0 0.15 1.12 0.99 93 1012.5
20260904230504 13 102 0.0 0.0 0.15 1.12 0.99 92 1012.5
20260904230004 13 148 0.0 0.0 0.15 1.12 0.99 92 1012.5
20260904225504 13 92 0.0 0.0 0.15 1.12 0.99 91 1012.5
20260904224504 13 125 0.0 0.0 0.15 1.12 0.99 90 1012.5
20260904224004 12 118 0.0 0.0 0.25 1.12 0.99 90 1012.5
20260904223504 12 80 0.0 3.2 0.25 1.12 0.99 90 1012.5
20260904223004 12 166 0.0 3.2 0.48 0.97 0.86 90 1012.5
20260904222004 13 282 0.0 0.0 0.71 0.97 0.86 88 1012.5
20260904221505 13 282 0.0 0.0 0.71 0.97 0.86 86 1012.5
20260904221003 13 282 0.0 0.0 0.71 0.97 0.86 85 1012.5
20260904220504 13 282 0.0 0.0 0.71 0.97 0.86 84 1012.5
20260904220004 13 282 0.0 0.0 0.71 0.97 0.86 83 1012.5
20260904215504 13 282 0.0 0.0 0.71 0.97 0.86 82 1012.5
20260904215004 13 282 0.0 0.0 0.71 0.97 0.86 81 1012.5
20260904214004 14 35 0.0 11.3 0.58 0.86 0.74 79 1011.5
20260904213504 15 302 1.6 16.1 0.58 0.86 0.74 77 1011.5
20260904213004 15 250 4.8 32.2 0.23 0.48 0.38 77 1011.5
20260904212504 16 244 8.0 32.2 0.10 0.36 0.25 74 1012.5
20260904212004 17 177 3.2 32.2 0.00 0.25 0.15 67 1012.5
20260904211504 18 241 0.0 0.0 0.00 0.25 0.15 68 1012.5
20260904211004 18 215 0.0 8.0 0.00 0.25 0.15 68 1011.5
20260904210503 18 180 1.6 8.0 0.00 0.25 0.15 68 1011.5
20260904210004 18 192 0.0 9.7 0.00 0.25 0.15 69 1011.5
20260904205504 18 305 0.0 9.7 0.00 0.25 0.15 70 1011.5
20260904205004 18 174 1.6 9.7 0.00 0.25 0.15 67 1011.5
20260904204504 17 215 0.0 0.0 0.00 0.25 0.15 69 1011.5
20260904204004 17 341 0.0 0.0 0.00 0.25 0.15 71 1011.5
20260904203504 17 305 0.0 0.0 0.00 0.25 0.15 70 1011.5
20260904202504 17 35 0.0 0.0 0.00 0.25 0.15 71 1011.5
20260904202004 17 35 0.0 0.0 0.00 0.25 0.15 71 1011.5
20260904201507 17 86 0.0 14.5 0.00 0.25 0.15 72 1011.5
20260904201007 17 305 1.6 14.5 0.00 0.25 0.15 72 1011.5
20260904200506 17 274 1.6 14.5 0.00 0.25 0.15 73 1011.5
20260904200006 17 58 0.0 3.2 0.00 0.25 0.15 71 1011.5
20260904195507 17 220 0.0 0.0 0.00 0.25 0.15 70 1011.5
20260904195007 17 300 0.0 8.0 0.00 0.25 0.15 71 1011.5
20260904194507 17 136 0.0 8.0 0.00 0.25 0.15 71 1011.5
20260904194006 17 45 1.6 8.0 0.00 0.25 0.15 73 1012.5
20260904192506 17 35 0.0 9.7 0.00 0.25 0.15 74 1012.5
20260904191506 17 42 3.2 9.7 0.00 0.25 0.15 75 1012.5
20260904191006 17 35 3.2 0.0 0.00 0.25 0.15 76 1012.5
20260904190507 17 35 3.2 9.7 0.00 0.25 0.15 77 1012.5
20260904190006 17 35 3.2 9.7 0.00 0.25 0.15 78 1012.5
20260904185507 17 110 6.4 9.7 0.00 0.25 0.15 78 1012.5
20260904185007 17 187 0.0 9.7 0.00 0.25 0.15 79 1012.5
20260904184507 16 170 0.0 12.9 0.00 0.25 0.15 79 1012.5
20260904184006 16 107 3.2 12.9 0.00 0.25 0.15 80 1012.5
20260904183507 16 38 3.2 12.9 0.00 0.25 0.15 81 1012.5
20260904183006 16 316 8.0 12.9 0.00 0.38 0.15 82 1012.5
20260904182507 16 48 3.2 11.3 0.00 0.51 0.15 82 1011.5
20260904182006 16 80 4.8 11.3 0.00 0.51 0.15 82 1011.5
20260904181506 16 80 0.0 4.8 0.00 0.51 0.15 83 1011.5
20260904181007 16 68 3.2 8.0 0.00 0.51 0.15 84 1011.5
20260904180507 16 80 1.6 9.7 0.00 0.51 0.15 84 1011.5
20260904180007 16 126 4.8 11.3 0.00 0.51 0.15 84 1011.5
20260904175506 16 127 8.0 11.3 0.00 0.51 0.15 89 1011.5
20260904175007 16 46 4.8 11.3 0.00 0.51 0.15 89 1011.5
20260904174006 16 96 4.8 9.7 0.00 0.51 0.15 91 1011.5
20260904173506 15 115 8.0 9.7 0.00 0.51 0.15 92 1011.5
20260904173006 15 148 0.0 11.3 0.00 0.51 0.15 93 1011.5
20260904172506 15 64 4.8 12.9 0.00 0.51 0.15 93 1011.5
20260904172006 15 119 0.0 12.9 0.00 0.51 0.15 93 1011.5